KE4EST Weather Reports


time (UTC)temp
C
wind
direction
speed
KPH
gust
KPH
rain 1hr
cm
rain 24hr
cm
rain mn
cm
humidity
%
barometer
mb
20260505200551 25 117 0.0 1.6 0.00 0.00 0.00 39 1013.6
20260505200048 25 133 1.6 3.2 0.00 0.00 0.00 40 1013.7
20260505195544 26 133 1.6 1.6 0.00 0.00 0.00 38 1013.7
20260505195041 26 252 1.6 3.2 0.00 0.00 0.00 36 1013.8
20260505194533 25 86 0.0 0.0 0.00 0.00 0.00 38 1013.9
20260505194028 26 105 0.0 1.6 0.00 0.00 0.00 37 1013.9
20260505193526 26 99 0.0 0.0 0.00 0.00 0.00 37 1013.9
20260505193023 26 98 0.0 1.6 0.00 0.00 0.00 36 1014.2
20260505192521 26 93 1.6 1.6 0.00 0.00 0.00 36 1014.2
20260505192019 26 141 1.6 1.6 0.00 0.00 0.00 33 1014.1
20260505191517 25 79 0.0 0.0 0.00 0.00 0.00 35 1014.4
20260505191015 25 239 3.2 3.2 0.00 0.00 0.00 36 1014.3
20260505190509 25 135 3.2 3.2 0.00 0.00 0.00 33 1014.4
20260505190005 25 98 0.0 1.6 0.00 0.00 0.00 35 1014.6
20260505185502 25 175 3.2 3.2 0.00 0.00 0.00 34 1014.8
20260505184958 25 122 1.6 1.6 0.00 0.00 0.00 36 1014.9
20260505184455 24 118 3.2 3.2 0.00 0.00 0.00 36 1014.8
20260505183952 25 222 3.2 4.8 0.00 0.00 0.00 33 1015.1
20260505183449 25 142 3.2 3.2 0.00 0.00 0.00 35 1014.9
20260505182945 25 102 0.0 1.6 0.00 0.00 0.00 35 1015.0
20260505182442 25 117 1.6 3.2 0.00 0.00 0.00 33 1015.0
20260505181938 25 97 1.6 1.6 0.00 0.00 0.00 35 1015.3
20260505181436 25 146 3.2 3.2 0.00 0.00 0.00 35 1015.3
20260505180933 24 123 1.6 1.6 0.00 0.00 0.00 37 1015.4
20260505180429 24 135 3.2 3.2 0.00 0.00 0.00 33 1015.4
20260505175926 24 155 1.6 3.2 0.00 0.00 0.00 35 1015.4
20260505175422 23 218 1.6 3.2 0.00 0.00 0.00 35 1015.5
20260505174918 23 151 3.2 4.8 0.00 0.00 0.00 35 1015.5
20260505174416 23 169 1.6 3.2 0.00 0.00 0.00 36 1015.7
20260505173912 23 209 3.2 3.2 0.00 0.00 0.00 39 1015.6
20260505173409 22 90 0.0 0.0 0.00 0.00 0.00 42 1016.1
20260505172906 22 96 1.6 1.6 0.00 0.00 0.00 43 1016.3
20260505172404 23 117 1.6 3.2 0.00 0.00 0.00 44 1016.0
20260505171903 23 193 1.6 3.2 0.00 0.00 0.00 41 1016.1
20260505171400 23 151 1.6 1.6 0.00 0.00 0.00 45 1016.1
20260505170857 23 228 1.6 3.2 0.00 0.00 0.00 45 1016.3
20260505170354 23 204 4.8 4.8 0.00 0.00 0.00 42 1016.2
20260505165849 22 150 1.6 1.6 0.00 0.00 0.00 41 1016.1
20260505165345 23 97 1.6 1.6 0.00 0.00 0.00 44 1016.1
20260505164841 23 86 0.0 0.0 0.00 0.00 0.00 44 1016.3
20260505164337 23 149 3.2 3.2 0.00 0.00 0.00 46 1016.3
20260505163836 23 84 0.0 0.0 0.00 0.00 0.00 42 1016.4
20260505163334 23 100 1.6 1.6 0.00 0.00 0.00 48 1016.6
20260505162832 23 215 1.6 3.2 0.00 0.00 0.00 46 1016.5
20260505162328 22 114 1.6 3.2 0.00 0.00 0.00 50 1016.7
20260505161825 22 105 0.0 0.0 0.00 0.00 0.00 47 1016.1
20260505161323 21 95 0.0 0.0 0.00 0.00 0.00 52 1016.6
20260505160820 21 120 1.6 1.6 0.00 0.00 0.00 51 1016.3
20260505160318 21 204 3.2 3.2 0.00 0.00 0.00 48 1016.4
20260505153256 21 80 0.0 0.0 0.00 0.00 0.00 52 1016.3
20260505152754 21 90 0.0 0.0 0.00 0.00 0.00 52 1016.8
20260505152249 21 120 0.0 0.0 0.00 0.00 0.00 53 1016.5
20260505151744 20 68 0.0 0.0 0.00 0.00 0.00 52 1016.7
20260505151242 20 114 1.6 1.6 0.00 0.00 0.00 58 1016.9
20260505150738 20 85 0.0 1.6 0.00 0.00 0.00 51 1017.1
20260505150235 20 78 0.0 1.6 0.00 0.00 0.00 57 1016.6
20260505140200 16 79 0.0 1.6 0.00 0.00 0.00 71 1016.7
20260505130124 12 86 0.0 0.0 0.00 0.00 0.00 84 1016.5
20260505124614 11 88 0.0 0.0 0.00 0.00 0.00 90 1016.3
20260505124110 10 89 0.0 0.0 0.00 0.00 0.00 92 1016.3
20260505123606 10 89 0.0 0.0 0.00 0.00 0.00 94 1016.5
20260505123103 10 90 0.0 0.0 0.00 0.00 0.00 96 1016.3
20260505122559 10 90 0.0 0.0 0.00 0.00 0.00 97 1016.1
20260505122056 9 90 0.0 0.0 0.00 0.00 0.00 97 1016.2
20260505121553 8 90 0.0 0.0 0.00 0.00 0.00 97 1016.2
20260505121050 8 90 0.0 0.0 0.00 0.00 0.00 98 1016.2
20260505120546 8 90 0.0 0.0 0.00 0.00 0.00 98 1016.1
20260505120042 8 90 0.0 0.0 0.00 0.00 0.00 98 1016.0
20260505115537 8 90 0.0 0.0 0.00 0.00 0.00 98 1016.1
20260505115034 7 90 0.0 0.0 0.00 0.00 0.00 99 1016.2
20260505114531 7 90 0.0 0.0 0.00 0.00 0.00 99 1016.2
20260505114027 7 90 0.0 0.0 0.00 0.00 0.00 98 1016.0
20260505113524 7 90 0.0 0.0 0.00 0.00 0.00 98 1015.6
20260505113020 7 92 0.0 0.0 0.00 0.00 0.00 98 1015.6
20260505112516 7 84 0.0 0.0 0.00 0.00 0.00 98 1015.5
20260505112015 7 88 0.0 0.0 0.00 0.00 0.00 98 1015.7
20260505111508 7 88 0.0 0.0 0.00 0.00 0.00 98 1015.6
20260505111005 7 89 0.0 0.0 0.00 0.00 0.00 98 1015.5
20260505110502 7 82 0.0 0.0 0.00 0.00 0.00 98 1015.4
20260505101933 7 89 0.0 0.0 0.00 0.00 0.00 98 1015.5
20260505101427 7 89 0.0 0.0 0.00 0.00 0.00 98 1015.6
20260505100923 7 90 0.0 0.0 0.00 0.00 0.00 98 1015.7
20260505100420 7 90 0.0 0.0 0.00 0.00 0.00 98 1015.2
20260505095916 7 90 0.0 0.0 0.00 0.00 0.00 98 1015.5
20260505095413 6 90 0.0 0.0 0.00 0.00 0.00 98 1015.4
20260505094909 6 90 0.0 0.0 0.00 0.00 0.00 98 1015.3
20260505094406 6 90 0.0 0.0 0.00 0.00 0.00 98 1015.3
20260505093902 7 90 0.0 0.0 0.00 0.00 0.00 98 1015.4
20260505093359 7 90 0.0 0.0 0.00 0.00 0.00 98 1015.2
20260505092856 6 90 0.0 0.0 0.00 0.00 0.00 98 1015.3
20260505092354 6 90 0.0 0.0 0.00 0.00 0.00 98 1015.3
20260505091851 6 90 0.0 0.0 0.00 0.00 0.00 98 1015.3
20260505091349 7 91 0.0 0.0 0.00 0.00 0.00 98 1015.3
20260505090847 7 91 0.0 0.0 0.00 0.00 0.00 98 1015.4
20260505090345 7 92 0.0 0.0 0.00 0.00 0.00 98 1015.5
20260505085842 7 96 0.0 0.0 0.00 0.00 0.00 98 1015.5
20260505085340 7 84 0.0 0.0 0.00 0.00 0.00 98 1015.7
20260505084837 7 84 0.0 0.0 0.00 0.00 0.00 98 1015.4
20260505084336 7 83 0.0 0.0 0.00 0.00 0.00 98 1015.5
20260505083833 7 88 0.0 0.0 0.00 0.00 0.00 98 1015.4
20260505083330 7 88 0.0 0.0 0.00 0.00 0.00 98 1015.6
20260505082826 7 88 0.0 0.0 0.00 0.00 0.00 98 1015.4
20260505082323 7 88 0.0 0.0 0.00 0.00 0.00 98 1015.4
20260505081820 7 88 0.0 0.0 0.00 0.00 0.00 98 1015.4
20260505081316 7 88 0.0 0.0 0.00 0.00 0.00 97 1015.5
20260505080813 7 88 0.0 0.0 0.00 0.00 0.00 97 1015.5
20260505080309 7 88 0.0 0.0 0.00 0.00 0.00 97 1015.5
20260505075804 7 88 0.0 0.0 0.00 0.00 0.00 97 1015.6
20260505075304 7 88 0.0 0.0 0.00 0.00 0.00 97 1015.7
20260505074759 7 88 0.0 0.0 0.00 0.00 0.00 97 1015.5
20260505074256 7 88 0.0 0.0 0.00 0.00 0.00 97 1015.4
20260505073753 7 88 0.0 0.0 0.00 0.00 0.00 97 1015.7
20260505073251 7 88 0.0 0.0 0.00 0.00 0.00 97 1015.5
20260505072748 7 95 0.0 0.0 0.00 0.00 0.00 97 1015.4
20260505072244 7 95 0.0 0.0 0.00 0.00 0.00 97 1015.7
20260505071740 7 86 0.0 0.0 0.00 0.00 0.00 97 1015.6
20260505071237 7 86 0.0 0.0 0.00 0.00 0.00 96 1015.6
20260505070734 8 86 0.0 0.0 0.00 0.00 0.00 96 1015.5
20260505070230 8 86 0.0 0.0 0.00 0.00 0.00 96 1015.6
20260505065726 8 86 0.0 0.0 0.00 0.00 0.00 96 1015.6
20260505065223 8 85 0.0 0.0 0.00 0.00 0.00 96 1015.5
20260505064720 8 84 0.0 0.0 0.00 0.00 0.00 96 1015.6
20260505064218 8 83 0.0 0.0 0.00 0.00 0.00 96 1015.4
20260505063715 8 85 0.0 0.0 0.00 0.00 0.00 96 1015.6
20260505063211 8 85 0.0 0.0 0.00 0.00 0.00 95 1015.5
20260505062707 8 85 0.0 0.0 0.00 0.00 0.00 95 1015.4
20260505062206 8 85 0.0 0.0 0.00 0.00 0.00 95 1015.6
20260505061702 8 85 0.0 0.0 0.00 0.00 0.00 95 1015.5
20260505061200 8 85 0.0 0.0 0.00 0.00 0.00 95 1015.7
20260505060657 8 85 0.0 0.0 0.00 0.00 0.00 94 1015.7
20260505060154 8 85 0.0 0.0 0.00 0.00 0.00 94 1015.6
20260505055649 8 83 0.0 0.0 0.00 0.00 0.00 94 1015.4
20260505055146 9 83 0.0 0.0 0.00 0.00 0.00 94 1015.6
20260505054643 9 83 0.0 0.0 0.00 0.00 0.00 94 1015.8
20260505054141 9 86 0.0 0.0 0.00 0.00 0.00 94 1015.4
20260505053639 9 86 0.0 0.0 0.00 0.00 0.00 94 1015.6
20260505053135 9 88 0.0 0.0 0.00 0.00 0.00 94 1015.7
20260505052632 9 85 0.0 0.0 0.00 0.00 0.00 93 1015.8
20260505052130 9 85 0.0 0.0 0.00 0.00 0.00 93 1015.8
20260505051626 10 85 0.0 0.0 0.00 0.00 0.00 92 1015.5
20260505051125 10 85 0.0 0.0 0.00 0.00 0.00 92 1015.6
20260505050622 10 85 0.0 0.0 0.00 0.00 0.00 92 1015.7
20260505050120 10 86 0.0 0.0 0.00 0.00 0.00 92 1015.6
20260505041550 11 86 0.0 0.0 0.00 0.00 0.00 89 1015.8
20260505041047 11 85 0.0 0.0 0.00 0.00 0.00 89 1015.6
20260505040544 11 85 0.0 0.0 0.00 0.00 0.00 89 1015.6
20260505040042 11 86 0.0 0.0 0.00 0.00 0.00 88 1015.6
20260505035537 11 85 0.0 0.0 0.00 0.00 0.00 88 1015.5
20260505035034 11 86 0.0 0.0 0.00 0.00 0.00 87 1015.6
20260505034531 11 86 0.0 0.0 0.00 0.00 0.00 87 1015.5
20260505034028 11 86 0.0 0.0 0.00 0.00 0.00 87 1015.5
20260505033525 11 86 0.0 0.0 0.00 0.00 0.00 87 1015.7
20260505033023 11 86 0.0 0.0 0.00 0.00 0.00 87 1015.5
20260505032520 11 86 0.0 0.0 0.00 0.00 0.00 86 1015.5
20260505032017 11 87 0.0 0.0 0.00 0.00 0.00 87 1015.6
20260505031514 11 88 0.0 0.0 0.00 0.00 0.00 86 1015.6
20260505031010 11 87 0.0 0.0 0.00 0.00 0.00 86 1015.5
20260505030507 12 87 0.0 0.0 0.00 0.00 0.00 85 1015.6
20260505030003 12 87 0.0 0.0 0.00 0.00 0.00 83 1015.5
20260505025459 12 87 0.0 0.0 0.00 0.00 0.00 83 1015.5
20260505024959 12 87 0.0 0.0 0.00 0.00 0.00 83 1015.8
20260505024455 12 87 0.0 0.0 0.00 0.00 0.00 82 1015.8
20260505023952 12 87 0.0 0.0 0.00 0.00 0.00 81 1015.5
20260505023449 12 87 0.0 0.0 0.00 0.00 0.00 80 1015.6
20260505022946 12 87 0.0 0.0 0.00 0.00 0.00 81 1015.5
20260505022444 13 87 0.0 0.0 0.00 0.00 0.00 79 1015.4
20260505021941 13 87 0.0 0.0 0.00 0.00 0.00 79 1015.5
20260505021437 13 87 0.0 0.0 0.00 0.00 0.00 79 1015.5
20260505020933 13 87 0.0 0.0 0.00 0.00 0.00 78 1015.5
20260505020428 13 87 0.0 0.0 0.00 0.00 0.00 77 1015.4
20260505015925 13 87 0.0 0.0 0.00 0.00 0.00 77 1015.4
20260505015423 13 90 0.0 0.0 0.00 0.00 0.00 76 1015.5
20260505014920 13 86 0.0 0.0 0.00 0.00 0.00 76 1015.3
20260505014416 14 85 0.0 0.0 0.00 0.00 0.00 74 1015.2
20260505013914 14 84 0.0 0.0 0.00 0.00 0.00 74 1015.2
20260505013410 15 87 0.0 0.0 0.00 0.00 0.00 73 1015.3
20260505012909 15 86 0.0 0.0 0.00 0.00 0.00 72 1015.0
20260505012406 15 87 0.0 0.0 0.00 0.00 0.00 71 1015.1
20260505011902 15 87 0.0 0.0 0.00 0.00 0.00 70 1014.9
20260505011359 15 88 0.0 0.0 0.00 0.00 0.00 69 1015.1
20260505010855 16 90 0.0 0.0 0.00 0.00 0.00 67 1015.0
20260505010351 16 90 0.0 0.0 0.00 0.00 0.00 66 1014.9
20260505005847 16 89 0.0 0.0 0.00 0.00 0.00 65 1015.0
20260505005344 16 89 0.0 0.0 0.00 0.00 0.00 64 1014.9
20260505004842 17 90 0.0 0.0 0.00 0.00 0.00 63 1015.0
20260505004338 17 90 0.0 0.0 0.00 0.00 0.00 62 1014.8
20260505003836 17 90 0.0 0.0 0.00 0.00 0.00 61 1014.8
20260505003333 18 94 0.0 0.0 0.00 0.00 0.00 57 1014.7
20260505002828 18 96 0.0 0.0 0.00 0.00 0.00 56 1014.5
20260505002326 18 97 0.0 0.0 0.00 0.00 0.00 54 1014.6
20260505001824 19 104 0.0 0.0 0.00 0.00 0.00 53 1014.5
20260505001321 19 100 0.0 0.0 0.00 0.00 0.00 53 1014.5
20260505000818 20 103 0.0 0.0 0.00 0.00 0.00 52 1014.7
20260505000316 20 96 0.0 0.0 0.00 0.00 0.00 51 1014.5
20260504235812 20 101 0.0 0.0 0.00 0.00 0.00 50 1014.7
20260504235309 20 100 0.0 0.0 0.00 0.00 0.00 49 1014.5
20260504234806 20 126 1.6 1.6 0.00 0.00 0.00 48 1014.5
20260504234304 21 122 0.0 0.0 0.00 0.00 0.00 48 1014.5
20260504233800 21 101 1.6 1.6 0.00 0.00 0.00 47 1014.4
20260504233255 21 124 0.0 1.6 0.00 0.00 0.00 46 1014.4
20260504232752 21 149 1.6 3.2 0.00 0.00 0.00 46 1014.4
20260504232249 21 99 0.0 0.0 0.00 0.00 0.00 47 1014.3
20260504231746 21 99 0.0 0.0 0.00 0.00 0.00 46 1014.4
20260504231243 21 120 1.6 1.6 0.00 0.00 0.00 46 1014.4
20260504230739 21 126 0.0 1.6 0.00 0.00 0.00 45 1014.4
20260504230237 21 102 0.0 0.0 0.00 0.00 0.00 45 1014.3
20260504225736 21 107 0.0 0.0 0.00 0.00 0.00 44 1014.3
20260504225232 21 118 0.0 1.6 0.00 0.00 0.00 43 1014.1
20260504224729 21 111 1.6 1.6 0.00 0.00 0.00 42 1014.2
20260504224226 21 100 0.0 0.0 0.00 0.00 0.00 40 1014.3
20260504223722 21 109 0.0 1.6 0.00 0.00 0.00 39 1014.4
20260504223218 22 98 0.0 0.0 0.00 0.00 0.00 38 1014.3
20260504222715 22 127 1.6 1.6 0.00 0.00 0.00 38 1014.4
20260504222212 22 146 1.6 1.6 0.00 0.00 0.00 37 1014.2
20260504221709 22 117 0.0 1.6 0.00 0.00 0.00 35 1014.3
20260504221206 22 99 1.6 1.6 0.00 0.00 0.00 35 1014.2
20260504220703 23 137 1.6 1.6 0.00 0.00 0.00 36 1014.4
20260504220201 23 154 1.6 3.2 0.00 0.00 0.00 36 1014.3
20260504215656 23 95 0.0 0.0 0.00 0.00 0.00 36 1014.3
20260504215154 23 197 3.2 4.8 0.00 0.00 0.00 34 1014.2
20260504214649 23 99 0.0 0.0 0.00 0.00 0.00 38 1014.1
20260504214146 23 163 3.2 3.2 0.00 0.00 0.00 37 1014.2
20260504213643 23 101 0.0 0.0 0.00 0.00 0.00 39 1014.1
20260504213140 23 120 1.6 1.6 0.00 0.00 0.00 39 1013.9
20260504212636 23 110 0.0 0.0 0.00 0.00 0.00 41 1013.8
20260504212133 23 97 0.0 0.0 0.00 0.00 0.00 40 1013.9
20260504211631 23 99 0.0 0.0 0.00 0.00 0.00 41 1014.1
20260504211127 23 124 1.6 1.6 0.00 0.00 0.00 38 1014.2
20260504210625 24 103 0.0 0.0 0.00 0.00 0.00 39 1014.2
20260504210121 24 105 1.6 1.6 0.00 0.00 0.00 37 1014.1
20260504205618 24 122 1.6 1.6 0.00 0.00 0.00 40 1014.2
20260504205116 24 97 0.0 1.6 0.00 0.00 0.00 38 1014.4
20260504204614 24 93 0.0 0.0 0.00 0.00 0.00 42 1014.1
20260504204113 24 113 0.0 1.6 0.00 0.00 0.00 38 1014.2
20260504203611 24 80 1.6 1.6 0.00 0.00 0.00 37 1014.3
20260504203108 24 127 1.6 1.6 0.00 0.00 0.00 38 1014.2
20260504202603 24 91 1.6 1.6 0.00 0.00 0.00 37 1014.1
20260504202100 24 117 1.6 1.6 0.00 0.00 0.00 40 1014.4
20260504201557 25 141 1.6 1.6 0.00 0.00 0.00 38 1014.4
20260504201055 25 92 0.0 0.0 0.00 0.00 0.00 38 1014.4